Weather in Petrovka

Ukraine / Kherson District     46°29′16″N   34°40′19″E
temp.,
°C
wind,
m/s
gust,
m/s
humid.,
%
clouds,
%
prec.,
mm/h
press.,
hPa
HPBL,
m
16 june, wed
wed1600:00+17sw48900 0.2 1009184
03:00+15sw379394 0.2 1010156
06:00+16sw25925 0.0 1010163
09:00+20ssw33653 0.0 1011913
12:00+24sw32460 0.0 10111568
15:00+25sw22380 0.0 10102054
18:00+25sw12398 0.0 10101680
21:00+20wsw225975 0.0 101025
17 june, thu
thu1700:00+19n3670100 0.0 101094
03:00+19n41069100 0.1 1010322
06:00+17n51098100 15.8 1009442
09:00+18nne81392100 23.7 1010754
12:00+23ene81278100 0.9 10091210
15:00+23ene81272100 1.8 10101088
18:00+22ene71175100 0.1 1010888
21:00+20ne81480100 0.1 1012735
18 june, fri
fri1800:00+19ne7138579 0.0 1011706
03:00+18ne7109187 0.2 1011470
06:00+19ene7118887 0.4 1012630
09:00+20ese91282100 1.1 10141053
12:00+22ese91268100 0.2 10151190
15:00+23ese91262100 0.3 10161360
18:00+22e8107090 0.0 10171084
21:00+20ese51175100 0.1 1018439
19 june, sat
sat1900:00+18ene3893100 1.4 1018230
03:00+17ne499460 1.7 1017241
06:00+17ne59925 0.0 1017278
09:00+21ene567526 0.0 1017672
12:00+25ene67593 0.0 10161149
15:00+26e78550 0.0 10161171
18:00+26e7105720 0.0 10151427
21:00+22ene614675 0.0 1015462
20 june, sun
sun2000:00+21ne61372100 0.3 1015441
03:00+19ne6147152 0.9 1014366
06:00+18ene6147299 2.6 1014440
09:00+23e9116280 3.3 1013884
12:00+25e81052100 0.0 1013931
15:00+25e895345 0.0 1013989
18:00+25e78582 0.0 1012804
21:00+21e33770 0.0 101238